Date String (YYYY-MM-DD hh:mm:ss) UTC,Instrument flags,Ambient pressure (hPa),Sample flow (lpm),Bypass flow (lpm),Sample temperature (°C),Ambient temperature (°C),ASC tube jacket temperature (°C),LED temperature (°C),Box temperature (°C),Sample RH (%),Span deviation,Mass concentration (μg/m³),Mass concentration (μg/m³),Mass concentration (μg/m³)
DateTimeUTC,F1_M11,P_M11,Q1_M11,Q2_M11,T1_M11,T2_M11,T3_M11,T4_M11,T5_M11,U1_M11,ZSPAN_M11,X0_M11,X2_M11,X1_M11
2021-10-02 20:00:00,,0831.8,4.99,0.00,29.7,28.2,00.0,38.7,31.5,15.6,0003.0,0015.73,0005.06,0004.40
2021-10-02 20:01:00,,0831.7,4.99,0.00,29.7,28.4,00.0,38.7,31.5,15.4,0002.9,0016.01,0005.08,0004.37
2021-10-02 20:02:00,,0831.7,5.01,0.00,29.8,28.7,00.0,38.7,31.6,15.5,0003.3,0016.09,0005.07,0004.32
2021-10-02 20:03:00,,0831.7,5.01,0.00,29.8,28.8,00.0,38.8,31.7,15.5,0003.5,0016.07,0005.01,0004.28
2021-10-02 20:04:00,,0831.7,4.99,0.00,29.9,29.0,00.0,38.8,31.7,16.5,0003.1,0014.90,0004.94,0004.24
2021-10-02 20:05:00,,0831.7,5.01,0.00,29.9,29.1,00.0,38.8,31.8,16.7,0003.0,0013.45,0004.97,0004.23
2021-10-02 20:06:00,,0831.7,4.99,0.00,30.0,28.8,00.0,38.8,31.7,16.5,0002.9,0013.86,0005.00,0004.23
2021-10-02 20:07:00,,0831.7,5.01,0.00,29.8,26.8,00.0,38.8,31.1,16.6,0002.9,0013.96,0005.05,0004.26
2021-10-02 20:08:00,,0831.8,5.00,0.00,29.6,25.7,00.0,38.8,30.8,17.1,0002.7,0013.50,0005.09,0004.30
2021-10-02 20:09:00,,0831.8,5.01,0.00,29.6,26.0,00.0,38.8,30.9,17.2,0002.5,0013.93,0005.13,0004.34
2021-10-02 20:10:00,,0831.8,4.99,0.00,29.5,26.5,00.0,38.7,31.1,17.3,0002.7,0014.11,0005.17,0004.38
2021-10-02 20:11:00,,0831.7,4.99,0.00,29.5,27.0,00.0,38.7,31.1,17.4,0003.0,0012.93,0005.21,0004.42
2021-10-02 20:12:00,,0831.7,5.01,0.00,29.5,27.5,00.0,38.6,31.2,17.1,0003.2,0012.62,0005.29,0004.47
2021-10-02 20:13:00,,0831.7,5.00,0.00,29.6,27.9,00.0,38.6,31.3,16.0,0002.9,0012.58,0005.33,0004.51
2021-10-02 20:14:00,,0831.7,5.00,0.00,29.6,28.2,00.0,38.6,31.4,15.7,0002.5,0013.31,0005.32,0004.51
2021-10-02 20:15:00,,0831.7,5.00,0.00,29.7,28.4,00.0,38.6,31.5,16.3,0002.5,0013.83,0005.37,0004.52
2021-10-02 20:16:00,,0831.7,5.00,0.00,29.7,28.6,00.0,38.6,31.6,16.3,0002.4,0013.76,0005.33,0004.50
2021-10-02 20:17:00,,0831.7,5.00,0.00,29.8,28.8,00.0,38.7,31.7,16.1,0002.2,0013.17,0005.23,0004.45
2021-10-02 20:18:00,,0831.7,5.01,0.00,29.8,29.0,00.0,38.7,31.7,16.3,0002.1,0012.68,0005.11,0004.39
2021-10-02 20:19:00,,0831.6,4.99,0.00,29.8,28.4,00.0,38.7,31.6,16.1,0002.2,0012.57,0005.03,0004.33
2021-10-02 20:20:00,,0831.5,5.00,0.00,29.7,26.3,00.0,38.7,31.0,14.6,0002.2,0012.17,0004.92,0004.26
2021-10-02 20:21:00,,0831.5,5.00,0.00,29.5,25.7,00.0,38.7,30.8,13.6,0002.0,0011.99,0004.87,0004.18
2021-10-02 20:22:00,,0831.5,4.99,0.00,29.4,26.1,00.0,38.6,30.9,12.9,0001.7,0013.46,0004.78,0004.10
2021-10-02 20:23:00,,0831.5,5.00,0.00,29.4,26.6,00.0,38.6,30.9,12.9,0001.7,0013.69,0004.60,0003.99
2021-10-02 20:24:00,,0831.4,5.00,0.00,29.4,27.1,00.0,38.5,31.0,13.0,0001.7,0013.97,0004.50,0003.90
2021-10-02 20:25:00,,0831.5,5.00,0.00,29.4,27.5,00.0,38.5,31.2,12.9,0001.7,0013.74,0004.45,0003.84
2021-10-02 20:26:00,,0831.5,5.00,0.00,29.5,27.9,00.0,38.5,31.2,12.9,0002.0,0013.69,0004.34,0003.77
2021-10-02 20:27:00,,0831.5,5.00,0.00,29.5,28.2,00.0,38.5,31.3,12.4,0001.9,0013.12,0004.24,0003.68
2021-10-02 20:28:00,,0831.5,4.99,0.00,29.6,28.4,00.0,38.5,31.4,12.7,0001.8,0013.25,0004.16,0003.61
2021-10-02 20:29:00,,0831.5,5.00,0.00,29.6,28.6,00.0,38.6,31.5,12.4,0001.9,0013.08,0004.11,0003.54
2021-10-02 20:30:00,,0831.5,5.00,0.00,29.6,28.7,00.0,38.6,31.5,12.3,0002.0,0012.95,0004.05,0003.48
2021-10-02 20:31:00,,0831.5,5.00,0.00,29.7,28.9,00.0,38.6,31.6,12.4,0002.1,0012.90,0004.02,0003.44
2021-10-02 20:32:00,,0831.5,5.00,0.00,29.8,29.0,00.0,38.6,31.7,12.7,0002.0,0013.07,0003.99,0003.43
2021-10-02 20:33:00,,0831.5,4.99,0.00,29.8,29.1,00.0,38.7,31.7,12.6,0001.4,0011.26,0003.97,0003.43
2021-10-02 20:34:00,,0831.5,5.00,0.00,29.9,29.2,00.0,38.7,31.8,12.5,0000.0,0011.20,0003.99,0003.44
2021-10-02 20:35:00,,0831.5,5.01,0.00,29.9,28.5,00.0,38.7,31.6,12.7,0000.0,0010.77,0003.94,0003.43
2021-10-02 20:36:00,,0831.4,4.99,0.00,29.7,26.3,00.0,38.7,30.9,13.0,0001.8,0010.02,0003.92,0003.45
2021-10-02 20:37:00,,0831.4,5.00,0.00,29.5,25.6,00.0,38.7,30.7,12.9,0002.1,0009.35,0003.90,0003.45
2021-10-02 20:38:00,,0831.4,5.01,0.00,29.5,26.0,00.0,38.6,30.9,12.7,0001.3,0009.76,0003.90,0003.45
2021-10-02 20:39:00,,0831.4,4.99,0.00,29.4,26.5,00.0,38.6,31.0,12.7,0001.9,0009.47,0003.88,0003.46
2021-10-02 20:40:00,,0831.4,4.99,0.00,29.4,27.0,00.0,38.6,31.1,12.8,0001.0,0009.19,0003.88,0003.46
2021-10-02 20:41:00,,0831.4,5.00,0.00,29.4,27.5,00.0,38.5,31.2,13.0,0000.0,0009.29,0003.89,0003.46
2021-10-02 20:42:00,,0831.4,5.00,0.00,29.5,27.9,00.0,38.5,31.3,12.7,0000.0,0009.18,0003.89,0003.46
2021-10-02 20:43:00,,0831.4,4.99,0.00,29.5,28.1,00.0,38.6,31.4,12.8,0000.0,0008.14,0003.90,0003.46
2021-10-02 20:44:00,,0831.4,5.00,0.00,29.6,28.4,00.0,38.6,31.4,12.9,0000.0,0008.24,0003.93,0003.46
2021-10-02 20:45:00,,0831.3,5.00,0.00,29.6,28.6,00.0,38.6,31.5,13.1,0001.3,0008.58,0003.91,0003.45
2021-10-02 20:46:00,,0831.3,5.00,0.00,29.7,28.8,00.0,38.6,31.6,12.7,0001.8,0009.17,0003.94,0003.47
2021-10-02 20:47:00,,0831.3,5.01,0.00,29.7,29.0,00.0,38.6,31.7,12.7,0001.2,0009.17,0003.95,0003.47
2021-10-02 20:48:00,,0831.3,4.99,0.00,29.8,29.1,00.0,38.6,31.7,12.7,0000.8,0009.19,0003.97,0003.47
2021-10-02 20:49:00,,0831.3,5.01,0.00,29.8,29.2,00.0,38.7,31.8,12.8,0001.1,0008.85,0003.97,0003.47
2021-10-02 20:50:00,,0831.3,5.01,0.00,29.9,28.4,00.0,38.7,31.6,12.6,0001.1,0008.76,0003.97,0003.47
2021-10-02 20:51:00,,0831.3,4.99,0.00,29.7,26.2,00.0,38.7,30.9,12.6,0001.3,0009.32,0003.96,0003.47
2021-10-02 20:52:00,,0831.3,5.00,0.00,29.5,25.6,00.0,38.7,30.8,12.9,0001.6,0009.55,0003.96,0003.46
2021-10-02 20:53:00,,0831.3,5.02,0.00,29.5,26.0,00.0,38.6,30.9,12.7,0001.7,0009.53,0003.96,0003.47
2021-10-02 20:54:00,,0831.3,4.98,0.00,29.4,26.5,00.0,38.6,31.0,12.8,0001.5,0009.88,0003.94,0003.48
2021-10-02 20:55:00,,0831.3,5.01,0.00,29.4,27.1,00.0,38.5,31.1,12.9,0001.2,0009.86,0003.92,0003.49
2021-10-02 20:56:00,,0831.2,5.00,0.00,29.4,27.5,00.0,38.5,31.2,13.0,0001.4,0009.73,0003.97,0003.50
2021-10-02 20:57:00,,0831.2,4.99,0.00,29.5,27.9,00.0,38.5,31.3,13.1,0001.4,0009.91,0003.97,0003.50
2021-10-02 20:58:00,,0831.2,4.99,0.00,29.5,28.2,00.0,38.5,31.4,13.5,0001.6,0009.95,0003.96,0003.50
2021-10-02 20:59:00,,0831.2,5.00,0.00,29.6,28.4,00.0,38.5,31.4,13.3,0002.1,0010.09,0003.96,0003.50
